76P/West-Kohoutek-Ikemura (2019)

Japanese version
Home page
Updated on February 21, 2021

---------------------------------------------------------------------

* Profile

* Pictures

* Orbital Elements

Epoch 2020 May 31.0 TT = JDT 2459000.5                                          
T 2019 Oct. 26.11724 TT                                 Spoto                   
q   1.6046934            (2000.0)            P               Q                  
n   0.15219068     Peri.    0.00704     +0.10226492     -0.85749606             
a   3.4743802      Node    84.12432     +0.91264712     -0.12077772             
e   0.5381354      Incl.   30.45673     +0.39574881     +0.50011323             
P   6.48                                                                        
From 1131 observations 1993 July 20-2020 Mar. 23, mean residual 0".8.           
     Nongravitational parameters A1 = +0.03, A2 = -0.0168.                      

* Finding Charts

* Magnitudes Graph

        m1 = 13.5 + 5 log d + 17.0 log r(t - 50)

---------------------------------------------------------------------

The orbital elements are published on M.P.E.C. 2020-S188.
The charts are made with StellaNavigator Ver.10 (AstroArts).
The magnitudes graphs are made with Comet for Windows.

---------------------------------------------------------------------

Copyright(C) Seiichi Yoshida (comet@aerith.net). All rights reserved.